Regional Weather Roundup
Issued by NWS

Home | Current Version | Previous Version | Text Only | Print | Product List | Glossary On
Versions: 1 2 3 4 5 6 7 8 9 10 11 12 13 14 15 16 17 18 19 20 21 22 23 24 25 26 27 28 29 30 31 32 33 34 35 36 37 38 39 40 41 42 43 44 45 46 47 48 49 50
000
ASUS42 KTBW 041317
RWRFL
FLORIDA REGIONAL WEATHER ROUNDUP
NATIONAL WEATHER SERVICE TAMPA BAY RUSKIN FL
900 AM EDT FRI SEP 04 2015

NOTE: "FAIR" INDICATES FEW OR NO CLOUDS BELOW 12,000 FEET WITH NO
SIGNIFICANT WEATHER AND/OR OBSTRUCTIONS TO VISIBILITY.


FLZ001>010-012>015-112-114-115-041400-
PANHANDLE FLORIDA

CITY           SKY/WX    TMP DP  RH WIND       PRES   REMARKS
PENSACOLA      SUNNY     78  74  87 N6        30.01R
PENSACOLA NAS  MOSUNNY   77  75  93 N5        30.00R
MILTON NAS     MOSUNNY   76  74  93 CALM      30.02
CRESTVIEW      MOSUNNY   74  73  97 CALM      30.03R FOG
DUKE FIELD     FAIR      73  72  95 CALM      30.01R
VALPARAISO     MOSUNNY   78  73  84 N5        30.01R
MARY ESTHER    SUNNY     75  72  91 N5        30.00R
PANAMA CITY    FAIR      78  73  84 W3        30.00R
TYNDALL AFB    MOSUNNY   80  74  82 N6        30.00R
APALACHICOLA   MOSUNNY   78  76  93 N8        29.99R

STATION/POSITION SKY/WX   TEMP    WIND        PRES    WAVE   SWELL
                          AIR SEA DIR/SP/G            HT/PER HT/PER
                          (F)     (DEG/KT/KT) (MB)    (FT/S) (FT/S)
30.1N   87.6W              83 85  290/  2/  4 1015.3R   1/ 4
29.2N   88.2W              82 84  250/  6/  8 1016.0R   1/ 4
28.8N   86.0W              83 86  340/  6/  8 1016.2R   1/ 4   2/ 5
PANAMA CITY BEAC           76 84  350/  6/ 10 1015.6R
CAPE SAN BLAS    NOT AVBL
TOWER C                    81     350/ 12/ 12 1015.4R
28.5N   84.5W              84 86  320/  8/ 10 1015.6R   1/ 5

$$
FLZ011-016>038-118-127-128-134-139-239-041400-
NORTH FLORIDA

CITY           SKY/WX    TMP DP  RH WIND       PRES   REMARKS
MARIANNA       SUNNY     75  73  93 CALM      30.00R
TALLAHASSEE    MOSUNNY   78  73  84 NW3       30.00R
PERRY          MOSUNNY   79  73  80 NW7       30.00R
CROSS CITY       N/A     79  74  84 NW3       29.99R
LAKE CITY      FAIR      77  73  88 N3        29.99R
GAINESVILLE    PTSUNNY   79  74  84 N5        29.98S
MAYPORT NAS    MOSUNNY   83  76  79 N5        29.97R
JACKSONVILLE   MOSUNNY   80  76  87 NW5       29.97S
JAX NAS        PTSUNNY   85  75  72 N9        29.98R
JAX CRAIG      MOSUNNY   83  75  77 N8        29.97S
JAX CECIL      MOSUNNY   79  77  94 CALM      29.98R
FERNANDINA BEA FAIR      84  77  79 NW5       29.96S
ST AUGUSTINE   PTSUNNY   83  78  85 NW5       29.98R HAZE

STATION/POSITION SKY/WX   TEMP    WIND        PRES    WAVE   SWELL
                          AIR SEA DIR/SP/G            HT/PER HT/PER
                          (F)     (DEG/KT/KT) (MB)    (FT/S) (FT/S)
SHELL POINT                76     330/  5/  7   N/A
KEATON BEACH               80     350/  4/  6 1015.7R
CEDAR KEY                  76     280/  4/  5 1016.4R
FERNANDINA                 78 85  320/  4/  5 1014.2R
30.7N   81.3W                 85                N/A     1/13
MAYPORT                    80 86  310/  5/  6 1015.2R
31.4N   80.9W              81 84  320/ 10/ 10 1015.0R   1/ 8   2/ 8
ST AUGUSTINE               81 83  330/  6/  7 1015.7R

$$
FLZ040-043>046-052-053-057-058-063-144-041400-
INTERIOR CENTRAL FLORIDA

CITY           SKY/WX    TMP DP  RH WIND       PRES   REMARKS
OCALA          SUNNY     79  73  83 N5        29.99R
THE VILLAGES     N/A     79  77  94 CALM      29.89R
LEESBURG       PTSUNNY   79  76  90 NW3       29.99R
SANFORD        CLOUDY    81  75  82 NW5       29.97R
ORLANDO EXEC   CLOUDY    82  77  84 NW7       29.98R
ORLANDO INTL   PTSUNNY   82  76  81 CALM      29.98R
KISSIMMEE      SUNNY     82  79  89 CALM      29.98S
WINTER HAVEN   MOSUNNY   82  77  84 NW3       30.00R
LAKELAND       MOSUNNY   81  77  89 CALM      29.99R
BARTOW         MOSUNNY   81  77  89 CALM      29.99S
OKEECHOBEE       N/A     79  77  94 NW7       29.99R

$$
FLZ041-047-054-059-064-141-147-041400-
EAST CENTRAL FLORIDA

CITY           SKY/WX    TMP DP  RH WIND       PRES   REMARKS
ORMOND BEACH   SUNNY    N/A N/A N/A W9        29.97R
DAYTONA BEACH  CLOUDY    80  76  87 NW5       29.98R
NEW SMYRNA BEA MOSUNNY   77  75  94 W6        29.98R
JFK SPACE CTR  MOSUNNY   82  76  81 NW8       29.96R
TITUSVILLE     MOSUNNY   81  79  94 NW12      29.97R
CAPE CANAVERAL MOSUNNY   83  78  84 NW8       29.95R
MELBOURNE      SUNNY     82  77  84 W7        29.97R
VERO BEACH     SUNNY     83  75  77 NW8       29.98R
FT PIERCE      SUNNY     82  77  84 NW6       29.97R

STATION/POSITION SKY/WX   TEMP    WIND        PRES    WAVE   SWELL
                          AIR SEA DIR/SP/G            HT/PER HT/PER
                          (F)     (DEG/KT/KT) (MB)    (FT/S) (FT/S)
28.5N   80.2W              82 85  300/ 12/ 14 1014.5R
28.9N   78.5W              78 85  260/ 16/ 29 1014.2R
TRIDENT PIER               80 86  260/  6/  7 1014.9R
28.4N   80.5W                 85                N/A     1/13
27.5N   80.2W                 83                N/A     1/13

$$
FLZ050-056-061-142-242-148-248-149-249-151-251-155-255-
160-260-041400-
WEST CENTRAL FLORIDA

CITY           SKY/WX    TMP DP  RH WIND       PRES   REMARKS
CRYSTAL RIVER  FAIR      81  73  78 N5        29.99R THUNDER
INVERNESS      FAIR      79  77  94 N3        29.99R
BROOKSVILLE    PTSUNNY   80  76  87 CALM      30.00R
CLEARWATER     MOSUNNY   84  77  79 NW6       29.99R
TAMPA INTL     PTSUNNY   84  76  76 NW5       29.99R
TAMPA EXEC     PTSUNNY   82  79  89 CALM      29.99S
PLANT CITY     PTSUNNY   82  79  89 CALM      30.01R
MACDILL AFB    MOSUNNY   83  81  95 NW5       29.98R HX  96
PETER O KNIGHT MOSUNNY   86  79  79 CALM      29.99R HX  99
ST PETERSBURG  PTSUNNY   84  73  69 W3        29.97R
SARASOTA       MOSUNNY   85  76  74 CALM      29.97S
VENICE         FAIR      82  77  83 NE5       29.99S

STATION/POSITION SKY/WX   TEMP    WIND        PRES    WAVE   SWELL
                          AIR SEA DIR/SP/G            HT/PER HT/PER
                          (F)     (DEG/KT/KT) (MB)    (FT/S) (FT/S)
CEDAR KEY                  76     280/  4/  5 1016.4R
28.5N   84.5W              84 86  320/  8/ 10 1015.6R   1/ 5
27.3N   84.2W                 86                N/A     1/ 7
CLEARWATER BEACH           85 87  310/  8/ 11 1015.1R
MIDDLE TAMPA BAY                  350/  5/  6 1015.5R
VENICE                     84 87   50/  4/  5 1014.9R

$$
FLZ066-069-070-075>078-162-262-165-265-041400-
SOUTHWEST FLORIDA AND KEYS

CITY           SKY/WX    TMP DP  RH WIND       PRES   REMARKS
PUNTA GORDA    MOSUNNY   83  78  85 N6        30.00R
FT MYERS       SUNNY     85  77  77 N8        29.98R HX  95
SOUTHWEST INTL SUNNY     85  76  74 N6        29.98R
NAPLES         SUNNY     86  75  70 N6        29.98R HX  95
MARCO ISLAND   MOSUNNY   82  73  74 CALM      29.98R
MARATHON       CLOUDY    88  77  69 CALM      29.98R HX 100
KEY WEST NAS   PTSUNNY   85  75  72 W3        29.99R
KEY WEST INTL  MOSUNNY   85  75  72 CALM      29.99R

STATION/POSITION SKY/WX   TEMP    WIND        PRES    WAVE   SWELL
                          AIR SEA DIR/SP/G            HT/PER HT/PER
                          (F)     (DEG/KT/KT) (MB)    (FT/S) (FT/S)
VENICE                     84 87   50/  4/  5 1014.9R
NAPLES           NOT AVBL
26.0N   85.6W              85 87   CALM  /  2 1015.2R   1/ 6   2/ 6
DRY TORTUGAS                                    N/A
NW FL BAY                  84      10/  5/  6 1014.8
SAND KEY                   86        CALM     1015.5R
LONG KEY                   85 89  230/  3/  4 1016.1R
MOLASSES REEF              85 87  250/  4/  5 1015.3R

$$
FLZ067-068-071>074-168-172>174-041400-
SOUTHEAST FLORIDA

CITY           SKY/WX    TMP DP  RH WIND       PRES   REMARKS
W PALM BEACH   MOSUNNY   81  75  82 W6        29.99R
FT LAUDER-EXEC SUNNY     84  72  67 W6        29.98R
FT LAUDERDALE  MOSUNNY   83  75  77 W5        29.97R
POMPANO BEACH  MOSUNNY   84  72  67 W6        29.97S
PEMBROKE PINES SUNNY     83  73  72 SW3       29.99R
OPA LOCKA      SUNNY     84  72  67 W5        29.99R
MIAMI          MOSUNNY   84  75  74 NW5       29.98R
WEST KENDALL   SUNNY     80  75  84 CALM      29.98S
HOMESTEAD      SUNNY     83  73  72 NW3       29.98R

STATION/POSITION SKY/WX   TEMP    WIND        PRES    WAVE   SWELL
                          AIR SEA DIR/SP/G            HT/PER HT/PER
                          (F)     (DEG/KT/KT) (MB)    (FT/S) (FT/S)
PORT EVERGLADES            83     280/  5/  6 1015.1R
VIRGINIA KEY               83 87  310/  5/  6 1014.7R
LAKE WORTH                 80 87  260/  5/  7 1014.3R
FOWEY ROCKS                83 87  280/  6/  6 1015.1R
SETTLEMENT POINT           85     260/  8/  9 1015.7R

$$




USA.gov is the U.S. government's official web portal to all federal, state and local government web resources and services.